{"data":{"norad_id":69286,"epoch":"2026-09-19T18:33:00.711360Z","epoch_age_seconds":92908,"freshness":"FRESH","line1":"1 69286U 26118V   26262.77292490  .00001881  00000+0  27570-3 0  9998","line2":"2 69286  51.9024 334.8234 0000416 217.8588 142.2345 14.79933721 18276","mean_motion":14.79933721,"eccentricity":4.16e-5,"inclination_deg":51.9024,"raan_deg":334.8234,"arg_perigee_deg":217.8588,"mean_anomaly_deg":142.2345,"bstar":0.0002757,"rev_number":1827,"period_min":97.301654767822,"perigee_km":629.24183407089,"apogee_km":629.82487224427,"semimajor_km":7007.6703531576,"source":"CELESTRAK","updated_at":"2026-09-20T09:00:24.781721Z"}}